Observations for Trim Market St
| Time | AQI | Temp °C | Hum % | Pres Pa | CO μg/m³ | H₂S μg/m³ | NO μg/m³ | NO₂ μg/m³ | O₃ μg/m³ | SO₂ μg/m³ | PM1 μg/m³ | PM2.5 μg/m³ | PM10 μg/m³ |
|---|---|---|---|---|---|---|---|---|---|---|---|---|---|
| Wednesday 15 July 2026 | |||||||||||||
| 10:04 | 1 | 26.1 | 53 | 57,254 | 0 | 0 | 0 | 1.88 | 29.6 | 0 | 9.98 | 14.55 | 20.61 |
| 10:03 | 1 | 26 | 54 | 57,374 | 0 | 0 | 0 | 3.97 | 32.3 | 0 | 10.69 | 16.57 | 24.92 |
| 10:02 | 1 | 25.9 | 54 | 57,497 | 0 | 0 | 0 | 2.57 | 35.39 | 0 | 11.4 | 16.04 | 24.9 |
| 10:01 | 1 | 25.7 | 54 | 57,663 | 0 | 0 | 0 | 4.1 | 32.99 | 0 | 10.69 | 14.5 | 21.25 |
| 10:00 | 1 | 25.6 | 54 | 57,744 | 0 | 0 | 0 | 1.92 | 34.27 | 0 | 12.11 | 16.53 | 24.85 |
| 09:59 | 1 | 25.5 | 54 | 57,803 | 0 | 0 | 0 | 3.75 | 38.48 | 0 | 9.26 | 13.48 | 18.36 |
| 09:58 | 1 | 25.3 | 54 | 57,807 | 0 | 0 | 0 | 2.6 | 38.31 | 0 | 12.83 | 17.04 | 25.57 |
| 09:56 | 1 | 25.2 | 54 | 57,810 | 0 | 0 | 0 | 4.55 | 31.82 | 0 | 9.98 | 12.98 | 19.1 |
| 09:53 | 1 | 25.2 | 54 | 57,804 | 0 | 0 | 0 | 4.86 | 27.36 | 0 | 12.11 | 15.53 | 24.17 |
| 09:52 | 1 | 25.2 | 54 | 57,802 | 0 | 0 | 0 | 1.96 | 32.72 | 0 | 12.83 | 17.57 | 26.34 |
| 09:51 | 1 | 25.2 | 54 | 57,801 | 0 | 0 | 0.18 | 5.28 | 26 | 0 | 10.69 | 15.55 | 22.02 |
| 09:50 | 1 | 25.3 | 54 | 57,796 | 0 | 0 | 0 | 1.76 | 34.65 | 0 | 11.4 | 15.55 | 21.3 |
| 09:49 | 1 | 25.3 | 53 | 57,792 | 0 | 0 | 0 | 1.27 | 31.37 | 0 | 12.11 | 16.58 | 24.21 |
| 09:48 | 1 | 25.3 | 53 | 57,781 | 0 | 0 | 0 | 2.08 | 30.1 | 0 | 13.54 | 16.59 | 24.23 |
| 09:47 | 1 | 25.3 | 53 | 57,769 | 0 | 0 | 0 | 2.1 | 31.63 | 0 | 12.11 | 15.07 | 20.62 |
| 09:46 | 1 | 25.4 | 53 | 57,754 | 0 | 0 | 0 | 0.68 | 28.92 | 0 | 9.98 | 14.05 | 20.62 |
| 09:45 | 1 | 25.5 | 53 | 57,732 | 0 | 0 | 0 | 1.27 | 27.96 | 0 | 12.11 | 16.62 | 24.28 |
| 09:38 | 1 | 25.7 | 52 | 57,516 | 0 | 0 | 0 | 0 | 24.79 | 0 | 12.11 | 16.67 | 25.09 |
| 09:36 | 1 | 25.8 | 52 | 57,437 | 0 | 0 | 0 | 0 | 21.4 | 0 | 12.83 | 16.68 | 23.64 |
| 09:35 | 1 | 25.9 | 52 | 57,420 | 0 | 0 | 0 | 0 | 24.25 | 0 | 9.26 | 15.65 | 21.45 |